Flag for Spain Weather past 2 weeks in Santa Cruz de Tenerife, Canary Islands, Spain

Now
59 °F

Scattered clouds.


Feels Like: 55 °F
Forecast: 62 / 70 °F
Wind: 22 mph from Northwest

Location: Tenerife / Los Rodeos

Current Time: Apr 21, 2015 at 1:34:19 PM

Latest Report: Apr 21, 2015 at 1:00 PM


Visibility: N/A

Pressure: 30.12 "Hg

Humidity: 68%

Dew point: 48 °F

Location of Santa Cruz de TenerifeLocation

Historic Weather in Santa Cruz de Tenerife — Graph

°F

Santa Cruz de Tenerife temperature yesterday

Maximum temperature yesterday: 63 °F (at 2:30 PM)
Minimum temperature yesterday: 54 °F (at 6:00 AM)
Average temperature yesterday: 57 °F

Past Weeks' High & Low Weather Summary

 TemperatureHumidityPressure
High64 °F (Apr 13, 3:30 PM)100% (Apr 6, 11:00 PM)30.27 "Hg (Apr 6, 11:00 PM)
Low46 °F (Apr 7, 6:00 AM)52% (Apr 13, 3:30 PM)29.95 "Hg (Apr 6, 5:00 PM)
Average56 °F81%30.11 "Hg
* Reported Apr 6 12:00 Noon — Apr 21 12:30 PM, Santa Cruz de Tenerife, Weather by CustomWeather, © 2015

Note: Actual official high and low records may vary slightly from our data, if they occured in-between our weather recording intervals... More about our weather records

Advertising

Santa Cruz de Tenerife weather history for previous 24 hours

 ConditionsComfort  
Time TempWeatherWind HumidityBarometerVisibility
12:30 PM
Tue, Apr 21
59 °FScattered clouds.20 mph68%30.12 "HgN/A
12:00 PM59 °FScattered clouds.21 mph72%30.12 "HgN/A
11:30 AM57 °FBroken clouds.20 mph77%30.12 "HgN/A
11:00 AM57 °FBroken clouds.21 mph82%30.12 "HgN/A
10:30 AM57 °FBroken clouds.20 mph82%30.12 "HgN/A
10:00 AM55 °FBroken clouds.21 mph88%30.09 "HgN/A
9:30 AM55 °FBroken clouds.20 mph82%30.09 "HgN/A
9:00 AM55 °FBroken clouds.17 mph82%30.09 "HgN/A
8:30 AM54 °FCool.16 mph88%30.09 "Hg6 mi
8:00 AM54 °FCool.16 mph88%30.09 "Hg6 mi
7:30 AM54 °FCool.16 mph88%30.07 "Hg6 mi
7:00 AM54 °FFog.15 mph88%30.07 "Hg6 mi
6:45 AM54 °FCool.15 mph88%30.07 "HgN/A
6:30 AM54 °FCool.14 mph88%30.07 "HgN/A
6:00 AM54 °FDrizzle. Fog.13 mph94%30.07 "HgN/A
11:00 PM
Mon, Apr 20
54 °FPassing clouds.12 mph88%30.12 "HgN/A
10:00 PM55 °FPassing clouds.13 mph82%30.09 "HgN/A
9:30 PM54 °FPartly sunny.15 mph88%30.09 "HgN/A
9:00 PM54 °FPartly sunny.15 mph88%30.09 "HgN/A
8:30 PM55 °FPartly sunny.17 mph88%30.09 "HgN/A
8:00 PM55 °FPartly sunny.16 mph88%30.09 "HgN/A
7:30 PM57 °FPartly sunny.16 mph77%30.09 "HgN/A
7:00 PM57 °FPartly sunny.16 mph72%30.09 "HgN/A
6:30 PM59 °FPartly sunny.13 mph68%30.09 "HgN/A
6:00 PM57 °FPartly sunny.14 mph77%30.09 "HgN/A
5:30 PM61 °FScattered clouds.16 mph68%30.09 "HgN/A
5:00 PM61 °FScattered clouds.12 mph68%30.09 "HgN/A
4:30 PM61 °FScattered clouds.14 mph59%30.09 "HgN/A
4:00 PM59 °FPartly sunny.12 mph68%30.09 "HgN/A
3:30 PM61 °FPartly sunny.14 mph63%30.12 "HgN/A
3:00 PM63 °FPartly sunny.15 mph59%30.12 "HgN/A
2:30 PM63 °FPartly sunny.15 mph59%30.12 "HgN/A
2:00 PM61 °FPartly sunny.13 mph63%30.12 "HgN/A
1:30 PM61 °FPartly sunny.14 mph63%30.12 "HgN/A
1:00 PM61 °FPartly sunny.13 mph63%30.15 "HgN/A
Weather by CustomWeather, © 2015

See weather overviewHow to use our weather pages